Vorticity
7 5 7 6 6 5 13 15 10 8 3 -6 5 9 14 11 12 2 7 8 9 6 9 7 5 3 3 2 2 3 4 4 4 3 3 6 6 8 10 11 11 11 6 7 7
7 7 5 4 7 13 9 9 12 8 9 -4 -1 15 16 13 11 7 5 12 10 10 2 11 10 3 3 3 2 2 2 7 5 3 3 3 4 7 7 9 12 13 15 9 6
6 8 13 6 3 9 18 9 12 -2 13 -2 -2 15 25 18 12 1 8 6 10 10 12 -0 8 9 2 4 3 3 3 5 7 2 2 3 4 3 6 6 8 9 10 13 13
6 13 14 8 7 13 13 16 8 10 3 6 14 34 25 21 15 2 11 2 8 9 9 12 5 11 7 6 4 3 2 4 6 3 5 2 3 5 4 4 5 6 6 6 7
6 9 18 15 10 6 14 10 -1 5 -1 1 37 24 19 29 12 15 12 7 7 11 6 8 10 6 9 10 6 2 1 5 4 4 6 4 2 3 3 5 5 3 4 4 5
14 11 10 16 19 8 14 9 14 3 1 13 36 15 16 22 17 16 15 6 6 10 9 11 9 12 7 7 4 3 3 4 5 3 4 4 4 1 2 2 3 5 4 4 4
5 8 7 16 12 15 4 14 7 6 6 27 27 17 18 17 20 14 20 9 7 5 11 9 12 10 9 10 11 5 4 2 3 3 2 6 6 -0 6 3 4 2 2 3 3
8 6 7 19 15 8 15 7 6 -0 0 25 27 16 29 11 13 19 14 13 6 7 12 11 9 9 10 6 11 6 3 3 3 2 3 9 1 3 5 2 3 4 3 3 3
12 8 11 18 15 12 12 9 7 7 1 18 30 17 17 14 18 20 12 13 8 7 10 12 8 7 8 12 3 11 4 3 5 4 2 5 -3 9 3 6 4 3 3 4 4
9 8 12 19 14 12 9 10 2 4 7 21 19 23 18 20 22 24 18 8 10 10 5 9 9 8 9 5 4 14 9 5 6 6 7 5 -1 5 7 4 4 5 2 3 3
9 7 13 23 12 11 10 7 4 -1 19 12 13 34 16 14 24 22 14 12 7 6 7 4 9 4 7 9 19 7 7 -0 9 8 9 7 4 1 2 6 3 5 3 4 4
8 11 14 21 9 12 8 8 -5 9 9 13 23 25 13 17 20 22 16 15 6 4 11 7 5 8 7 10 11 19 3 4 5 10 7 9 5 5 1 1 3 5 3 2 4
9 17 13 18 10 13 12 11 -4 10 14 14 26 20 9 20 28 23 19 14 15 11 7 9 4 6 5 6 7 8 19 5 -2 15 12 10 7 8 3 3 4 4 1 2 4
12 18 12 18 6 14 10 -0 5 12 12 12 36 36 23 26 24 25 23 17 14 17 5 10 10 4 8 5 5 4 12 11 -1 -3 8 11 12 7 6 3 2 3 3 3 2
17 14 13 22 10 13 12 -7 6 19 5 11 21 14 15 34 20 23 19 24 15 12 6 14 7 9 4 0 8 11 5 13 9 15 10 5 20 -3 10 2 2 5 7 5 4
13 11 17 10 15 11 9 -6 12 19 22 14 19 10 15 23 26 27 13 16 21 10 13 12 10 6 8 6 7 1 5 6 8 -0 17 11 16 4 2 6 3 4 7 8 8
10 8 17 11 13 12 -1 2 19 17 14 12 19 11 22 26 22 20 21 18 11 9 6 9 8 9 8 9 6 9 5 8 14 10 10 0 5 17 3 6 11 8 5 4 5
15 5 19 8 12 9 -5 15 18 14 13 21 22 10 31 23 15 31 22 19 11 -39 73 7 7 9 3 13 9 3 6 5 -10 -1 19 2 15 8 12 6 8 -10 5 17 19
10 11 9 10 13 -2 11 10 17 14 17 14 12 21 40 10 1 30 29 17 16 3 -20 24 28 6 13 4 6 5 5 6 9 8 6 -3 15 6 7 11 4 8 18 0 1
8 11 18 18 -0 3 8 19 14 14 12 16 10 23 45 19 7 5 29 20 23 3 -27 39 3 9 12 6 9 6 13 5 7 12 9 4 11 11 7 9 13 15 16 18 12
9 12 20 5 -5 10 14 13 14 19 13 18 12 37 40 21 14 -6 17 32 4 2 20 -13 35 8 3 8 9 7 5 4 2 7 5 10 17 8 11 8 14 16 10 12 14
14 12 15 -0 7 19 10 15 18 22 18 13 10 21 25 27 13 -12 16 13 23 8 -28 -1 19 61 8 -6 3 8 23 10 10 2 1 4 7 5 5 3 5 15 10 12 6
0 24 0 7 10 14 10 13 17 20 17 16 13 7 27 16 27 -0 -24 -1 17 5 41 -28 -11 -14 65 64 19 11 2 10 20 9 5 2 8 13 12 13 16 16 11 11 11
13 8 3 12 4 16 12 7 18 10 19 17 21 12 6 24 35 29 8 -13 -15 25 32 31 0 -29 -33 10 38 6 14 20 29 -0 -0 11 5 10 10 6 7 14 3 17 12
4 4 10 10 7 19 5 14 11 15 12 13 20 0 18 16 24 39 3 18 -2 -2 8 42 31 13 -12 2 -3 33 6 -3 11 9 10 15 12 3 6 5 7 11 12 8 10
4 28 16 1 23 19 5 18 7 9 16 35 12 7 19 -11 -1 30 26 26 1 4 -20 1 33 32 8 -5 17 11 -9 -19 -15 14 10 29 12 -1 7 14 14 10 10 7 6
-10 21 13 23 2 3 19 5 17 2 16 16 23 9 1 11 11 4 28 15 25 15 0 -10 34 22 20 19 -17 12 8 7 7 4 4 9 11 4 10 13 11 12 9 7 4
Height
5763 5758 5754 5749 5744 5740 5737 5736 5734 5733 5733 5732 5732 5732 5732 5735 5739 5744 5753 5755 5755 5758 5763 5768 5772 5776 5780 5783 5786 5788 5792 5794 5795 5797 5801 5804 5805 5806 5807 5808 5810 5813 5816 5820 5823
5755 5748 5742 5736 5732 5728 5724 5721 5719 5718 5717 5717 5716 5716 5716 5718 5722 5732 5743 5740 5740 5747 5754 5757 5761 5765 5771 5775 5778 5782 5788 5790 5790 5793 5796 5800 5802 5804 5807 5807 5809 5811 5814 5817 5821
5748 5741 5734 5727 5720 5716 5711 5708 5705 5703 5702 5700 5699 5698 5698 5699 5703 5724 5723 5726 5729 5735 5742 5745 5748 5754 5760 5765 5770 5776 5784 5783 5784 5788 5791 5794 5798 5802 5804 5807 5808 5810 5812 5815 5818
5738 5731 5724 5715 5710 5704 5698 5694 5692 5690 5686 5684 5682 5679 5678 5679 5686 5706 5711 5714 5717 5722 5729 5731 5736 5743 5750 5755 5761 5767 5774 5774 5778 5782 5786 5790 5793 5798 5801 5804 5806 5809 5811 5813 5816
5727 5719 5713 5705 5698 5692 5687 5683 5679 5676 5671 5666 5662 5659 5659 5661 5682 5689 5698 5698 5705 5709 5714 5718 5723 5730 5738 5743 5747 5755 5763 5765 5770 5774 5779 5783 5788 5792 5797 5801 5804 5807 5809 5812 5814
5716 5709 5701 5692 5685 5679 5673 5669 5666 5661 5655 5649 5645 5642 5642 5651 5672 5670 5677 5683 5689 5695 5699 5706 5712 5718 5724 5730 5735 5744 5752 5755 5760 5766 5770 5776 5781 5785 5791 5795 5799 5803 5806 5809 5812
5703 5694 5686 5679 5670 5664 5660 5656 5652 5647 5640 5634 5628 5624 5628 5651 5652 5654 5658 5668 5673 5681 5687 5693 5699 5702 5712 5719 5724 5732 5738 5742 5748 5756 5762 5768 5772 5781 5784 5788 5793 5797 5801 5805 5808
5688 5681 5673 5665 5658 5650 5646 5640 5637 5632 5625 5618 5614 5610 5613 5630 5633 5638 5644 5651 5658 5666 5672 5677 5684 5691 5697 5706 5711 5719 5726 5730 5740 5746 5754 5760 5768 5777 5776 5780 5786 5790 5795 5799 5803
5674 5666 5658 5652 5644 5636 5632 5627 5622 5616 5611 5604 5602 5596 5603 5612 5616 5622 5625 5638 5639 5646 5656 5660 5667 5675 5684 5693 5699 5707 5717 5722 5732 5736 5743 5749 5761 5768 5767 5772 5778 5783 5788 5792 5796
5660 5652 5644 5637 5627 5621 5617 5614 5609 5601 5595 5591 5588 5587 5592 5595 5597 5605 5609 5617 5621 5627 5636 5642 5651 5658 5667 5675 5688 5702 5707 5713 5722 5726 5732 5740 5751 5759 5758 5762 5770 5774 5778 5785 5790
5648 5639 5629 5622 5614 5606 5602 5599 5595 5586 5580 5578 5574 5571 5576 5574 5576 5583 5587 5598 5603 5608 5617 5630 5633 5639 5664 5675 5686 5689 5694 5702 5715 5720 5722 5730 5735 5747 5747 5750 5759 5766 5773 5779 5784
5634 5625 5616 5609 5602 5592 5585 5583 5578 5570 5570 5568 5561 5550 5559 5550 5557 5571 5574 5579 5586 5593 5612 5613 5615 5644 5655 5660 5668 5676 5684 5693 5703 5706 5707 5714 5719 5734 5736 5741 5751 5759 5765 5770 5776
5619 5610 5602 5595 5588 5578 5572 5570 5562 5552 5542 5558 5544 5540 5540 5539 5543 5555 5555 5568 5573 5588 5594 5599 5621 5637 5641 5648 5652 5660 5671 5684 5692 5694 5696 5701 5702 5718 5728 5732 5741 5750 5757 5762 5767
5605 5596 5588 5583 5576 5565 5560 5556 5545 5536 5528 5538 5528 5526 5525 5526 5532 5545 5546 5555 5561 5572 5584 5590 5618 5620 5620 5631 5642 5648 5670 5674 5675 5678 5683 5686 5688 5701 5718 5722 5730 5740 5747 5752 5756
5592 5584 5576 5566 5563 5554 5551 5541 5530 5526 5517 5518 5514 5516 5516 5515 5517 5526 5534 5540 5550 5564 5567 5578 5597 5602 5606 5627 5640 5650 5657 5660 5664 5664 5665 5673 5673 5694 5707 5713 5722 5731 5740 5744 5747
5578 5570 5562 5555 5548 5543 5537 5528 5519 5516 5509 5508 5503 5503 5505 5504 5505 5514 5516 5527 5541 5551 5558 5577 5588 5589 5599 5620 5623 5632 5642 5644 5647 5649 5647 5672 5670 5676 5697 5707 5712 5721 5729 5733 5737
5564 5558 5549 5543 5537 5530 5524 5516 5509 5507 5499 5495 5492 5491 5494 5495 5497 5502 5508 5515 5527 5537 5544 5562 5562 5575 5587 5599 5608 5617 5627 5629 5632 5631 5643 5663 5658 5664 5691 5698 5706 5714 5717 5721 5725
5552 5545 5537 5530 5524 5517 5511 5506 5500 5493 5488 5484 5481 5482 5481 5481 5488 5491 5496 5508 5520 5529 5541 5548 5550 5558 5567 5578 5594 5607 5616 5618 5620 5628 5643 5648 5634 5653 5671 5691 5701 5704 5707 5711 5717
5541 5534 5526 5518 5511 5506 5500 5495 5489 5481 5478 5472 5472 5471 5471 5470 5477 5481 5484 5498 5514 5524 5529 5536 5541 5556 5563 5575 5585 5595 5595 5617 5619 5623 5629 5622 5640 5650 5661 5678 5690 5696 5699 5704 5708
5530 5522 5515 5506 5500 5494 5489 5485 5478 5471 5466 5461 5460 5460 5460 5462 5468 5473 5477 5486 5495 5504 5513 5524 5534 5541 5559 5563 5571 5577 5603 5596 5600 5605 5612 5615 5628 5639 5654 5667 5680 5685 5689 5693 5696
5516 5509 5502 5494 5489 5483 5478 5474 5470 5463 5456 5455 5452 5450 5451 5453 5457 5465 5471 5479 5487 5496 5500 5515 5522 5532 5539 5538 5552 5564 5569 5579 5591 5597 5605 5610 5618 5638 5646 5657 5669 5676 5679 5682 5687
5503 5494 5489 5483 5478 5471 5468 5466 5462 5456 5448 5447 5446 5444 5445 5447 5449 5457 5464 5471 5476 5481 5491 5497 5504 5516 5526 5537 5546 5557 5565 5572 5571 5584 5596 5603 5613 5626 5636 5647 5657 5664 5667 5672 5676
5486 5480 5476 5472 5466 5462 5458 5456 5451 5448 5443 5440 5439 5439 5441 5443 5444 5448 5452 5459 5467 5471 5474 5484 5490 5498 5512 5523 5530 5536 5549 5558 5569 5581 5583 5592 5605 5622 5631 5640 5647 5654 5658 5661 5665
5472 5468 5465 5456 5456 5454 5450 5448 5443 5439 5436 5433 5433 5433 5435 5436 5437 5441 5441 5448 5456 5462 5465 5471 5478 5485 5497 5506 5517 5527 5538 5547 5554 5560 5576 5580 5606 5612 5619 5629 5636 5643 5648 5652 5656
5462 5460 5455 5449 5446 5443 5440 5439 5435 5430 5428 5426 5426 5427 5430 5430 5430 5431 5433 5437 5447 5455 5461 5465 5473 5478 5488 5500 5505 5513 5527 5536 5538 5556 5561 5587 5594 5607 5612 5619 5626 5632 5638 5643 5647
5451 5449 5444 5442 5437 5434 5430 5430 5427 5422 5419 5419 5417 5419 5423 5423 5422 5426 5427 5431 5436 5446 5452 5453 5457 5466 5482 5491 5497 5501 5513 5522 5529 5546 5556 5572 5577 5595 5602 5608 5616 5621 5627 5633 5637
5439 5436 5432 5433 5430 5425 5422 5419 5417 5414 5413 5410 5410 5410 5414 5415 5412 5417 5420 5426 5426 5433 5440 5449 5452 5458 5473 5477 5480 5484 5498 5513 5526 5540 5552 5559 5580 5587 5594 5599 5606 5612 5618 5622 5628